Regional Weather Roundup
Issued by NWS Newport/Morehead, NC

Current Version | Previous Version | Text Only | Print | Product List | Glossary On
Versions: 1 2 3 4 5 6 7 8 9 10 11 12 13 14 15 16 17 18 19 20 21 22 23 24 25 26 27 28 29 30 31 32 33 34 35 36 37 38 39 40 41 42 43 44 45 46 47 48 49 50
000 ASUS42 KMHX 280013 RWRMHX WEATHER ROUNDUP FOR EASTERN NORTH CAROLINA NATIONAL WEATHER SERVICE NEWPORT/MOREHEAD CITY NC 800 PM EDT THU AUG 27 2015 NOTE: "FAIR" INDICATES FEW OR NO CLOUDS BELOW 12,000 FEET WITH NO SIGNIFICANT WEATHER AND/OR OBSTRUCTIONS TO VISIBILITY NCZ015>017-031-032-045>047-102-103-280100- NORTH COAST CITY SKY/WX TMP DP RH WIND PRES REMARKS EDENTON CLOUDY 72 64 76 N5 30.08S ELIZABETH CITY CLOUDY 74 62 66 N9 30.08R KITTY HAWK CLOUDY 76 62 62 NE6 30.06R MANTEO CLOUDY 75 63 66 NE10 30.07R $$ NCZ045>047-081-094-103-104-280100- CENTRAL COAST CITY SKY/WX TMP DP RH WIND PRES REMARKS FRISCO LGT RAIN 71 70 96 NE5 30.05R SWANQUARTER NOT AVBL $$ NCZ095-097-098-100-101-280100- SOUTHERN COAST CITY SKY/WX TMP DP RH WIND PRES REMARKS BEAUFORT CLOUDY 74 72 93 NE9 30.04R CEDAR ISLAND NOT AVBL JACKSONVILLE CLOUDY 76 67 73 NE12 30.04R PINEY ISLAND HVY RAIN N/A N/A N/A NE13G22 30.05R WILMINGTON MOCLDY 76 71 85 N9 30.03R $$ NCZ011>013-027>030-043-044-078>080-089-090>093-098-280100- COASTAL PLAIN CITY SKY/WX TMP DP RH WIND PRES REMARKS AHOSKIE MOCLDY 70 64 80 CALM 30.09R CLINTON MOCLDY 75 64 70 NE5 30.06S ELIZABETHTOWN CLOUDY 74 65 72 CALM 30.06R GOLDSBORO PTCLDY 73 67 81 NE8 30.06R GREENVILLE PTCLDY 72 66 83 NE3 30.09R HAVELOCK CLOUDY 76 67 73 NE10 30.06R KENANSVILLE N/A 72 64 75 CALM 30.07R KINSTON PTCLDY 72 64 78 MISG 30.07S NEW BERN MOCLDY 73 64 73 NE9 30.07R RICHLANDS MOCLDY 73 64 73 N7 30.05R ROCKY MOUNT MOCLDY 75 62 64 CALM 30.08R WASHINGTON MOCLDY 71 66 84 NE3 30.07R WHITEVILLE CLOUDY 74 70 86 N3 30.04R $$ AMZ130-135-150-152-154-156-158-170-250-252-270-ANZ085-086-088-633-658-670-280100- MARINE OBSERVATIONS STATION/POSITION TIME TEMP WIND PRES WAVE SWELL AIR SEA DIR/SP/G HT/PER HT/PER (UTC) (F) (DEG/KT/KT) (MB) (FT/S) (FT/S) CHESAPEAKE LIGHT 0000 75 30/ 8/ 9 1019.5 64 E VA BEACH 2350 76 78 30/ 14/ 17 1017.5 4/ 8 3/ 8 DUCK 2300 76 78 30/ 15/ 17 1017.3 2 E DUCK 2311 78 N/A 4/10 2/11 OREGON INLET 2300 77 78 30/ 13/ 19 1017.0 13E OREGON INLT 0000 79 N/A 5/ 6 2/13 HATTERAS CG 2300 73 81 70/ 8/ 12 1016.5 DIAMOND BUOY 2350 77 82 60/ 8/ 10 1016.9 5/10 5/10 CAPE LOOKOUT 0000 76 100/ 14/ 15 1016.6 BEAUFORT LAB 2300 75 81 40/ 6/ 9 1015.9 30 SE NEW RVR IN NOT AVBL 30 SE NEW RVR IN 2325 82 N/A 4/ 5 2/11 27 SE WRIGHTSVLE 2300 76 82 60/ 16/ 17 N/A 5 SE WRIGHTSVLE 2308 79 83 50/ 19/ 25 1015.8 225 S CAPE HAT 2350 81 84 170/ 8/ 8 1016.0 3/ 8 3/ 8 41 SE CHARLESTON 2350 81 85 350/ 4/ 6 1015.2 2/10 2/10 $$

USA.gov is the U.S. government's official web portal to all federal, state and local government web resources and services.